Simultaneous Nadir Overpasses (SNOs) Predictions

Prediction of SNOs between METOP-B and TERRA Satellite Orbit:

Table of predicted SNOs for the next 14.0 days since TLE Epoch: 12/14/2024
Index Date (METOP-B) Time (METOP-B) Lat,Lon (METOP-B) SZA (METOP-B ) Date (TERRA) Time (TERRA) Lat,Lon (TERRA) SZA (TERRA ) Distance(km) Time Diff (sec)
1 12/15/2024 02:56:59 -79.46, -31.43 77.02 12/15/2024 02:57:13 -79.45, -31.56 77.03 2.82 14
2 12/15/2024 03:47:34 79.66, 137.49 103.24 12/15/2024 03:46:28 79.66, 137.48 103.23 0.26 66
3 12/17/2024 16:36:54 79.38, -57.05 102.97 12/17/2024 16:37:17 79.37, -57.14 102.96 2.13 23
4 12/17/2024 17:27:30 -79.56, 111.69 76.80 12/17/2024 17:26:32 -79.57, 111.80 76.81 2.14 58
5 12/20/2024 06:16:49 -79.34, -82.34 77.05 12/20/2024 06:17:20 -79.33, -82.43 77.06 2.29 31
6 12/20/2024 07:07:23 79.57, 86.77 103.25 12/20/2024 07:06:34 79.57, 86.75 103.23 0.35 49
7 12/22/2024 19:56:43 79.30,-107.64 102.88 12/22/2024 19:57:22 79.30,-107.71 102.88 1.48 39
8 12/22/2024 20:47:16 -79.59, 61.93 76.75 12/22/2024 20:46:35 -79.58, 61.80 76.77 2.84 41
9 12/25/2024 09:36:39 -79.21,-133.31 77.30 12/25/2024 09:37:25 -79.21,-133.30 77.30 0.24 46
10 12/25/2024 10:27:12 79.47, 35.97 103.03 12/25/2024 10:26:38 79.47, 36.02 103.03 1.16 34
11 12/27/2024 23:16:32 79.17,-158.56 102.54 12/27/2024 23:17:25 79.17,-158.53 102.55 0.89 53



Historial Predications of SNOs between METOP-B and TERRA
